Location: Carrières
(48.9495°N, 2.0407°E)
Time: 18:11:54
(UTC+00:00)

SR - Pass Details

Date: 21 April 2024
Orbit: 579 x 860 km, 66.7° (Epoch: 22 May)

Event Time Altitude Azimuth Distance (km) Brightness Sun altitude
Exits shadow 00:43:48 29° 100° (E) 1,398 ? -28.0°
Drops below altitude 10° 00:47:36 10° 54° (NE) 2,260 ? -27.8°
Sets 00:50:08 0° 44° (NE) 3,138 ? -27.7°
